Date,TemperatureHighF,TemperatureAvgF,TemperatureLowF,DewpointHighF,DewpointAvgF,DewpointLowF,HumidityHigh,HumidityAvg,HumidityLow,PressureMaxIn,PressureMinIn,WindSpeedMaxMPH,WindSpeedAvgMPH,GustSpeedMaxMPH,PrecipitationSumIn
2012-1-1,57,44,36,54,37,21,93,76,55,30.14,29.96,16,6,28,0.00
2012-1-2,36,29,18,21,12,7,85,49,34,30.08,29.96,16,10,33,0.00
2012-1-3,25,18,12,10,7,3,78,61,42,30.19,30.04,10,5,15,0.00
2012-1-4,39,20,12,16,9,5,78,63,37,30.23,30.07,7,0,0,0.00
2012-1-5,50,40,34,30,26,19,86,61,31,30.11,30.04,9,1,0,0.00
2012-1-6,63,44,30,30,25,21,74,48,26,30.11,30.02,0,-48,0,0.00
2012-1-7,54,48,39,52,40,25,100,77,48,30.11,30.00,5,0,0,0.00
2012-1-8,52,48,45,52,48,45,100,100,100,30.19,30.10,0,0,0,0.00
2012-1-9,55,51,48,55,51,48,100,100,100,30.17,30.06,0,0,0,0.00
2012-1-10,52,49,46,52,49,46,100,100,100,30.10,29.92,0,0,0,0.00
2012-1-11,52,48,45,52,48,45,100,100,100,29.92,29.52,12,-6,22,0.00
2012-1-12,50,41,23,46,39,10,100,91,57,29.72,29.53,22,9,54,0.00
2012-1-13,28,23,19,18,15,12,79,71,58,30.04,29.74,9,1,0,0.00
2012-1-14,39,29,21,27,17,10,79,60,41,30.11,30.00,10,4,20,0.00
2012-1-15,46,36,28,27,20,14,74,56,32,30.38,30.05,12,2,22,0.00
2012-1-16,45,37,28,27,22,18,68,55,33,30.41,30.27,0,0,0,0.00
2012-1-17,54,46,43,52,38,28,100,73,56,30.27,29.95,7,-96,0,0.00
2012-1-18,46,35,28,46,30,21,100,82,60,30.05,29.97,8,2,0,0.00
2012-1-19,45,34,25,28,24,21,92,67,42,30.07,29.99,6,0,0,0.00
2012-1-20,48,40,34,48,37,25,100,89,64,30.09,29.99,0,0,0,0.00
2012-1-21,52,49,46,52,49,46,100,100,100,30.06,29.89,7,1,0,0.00
2012-1-22,48,46,45,48,46,45,100,100,100,30.17,30.06,7,1,0,0.00
2012-1-23,55,48,45,54,48,45,100,98,87,30.14,29.98,10,3,18,0.00
2012-1-24,59,45,37,48,40,34,100,84,46,30.24,30.03,7,0,0,0.00
2012-1-25,64,46,36,48,36,30,86,70,29,30.27,30.14,7,0,0,0.00
2012-1-26,61,57,54,57,53,48,100,87,77,30.14,29.74,15,5,30,0.00
2012-1-27,57,47,37,54,42,32,100,83,61,30.02,29.67,18,6,31,0.00
2012-1-28,50,37,28,39,33,28,100,89,66,30.10,30.02,7,1,0,0.00
2012-1-29,45,40,32,23,11,7,69,31,22,30.29,30.21,20,4,31,0.00
2012-1-30,55,44,30,27,22,14,60,42,26,30.36,30.24,7,1,0,0.00
2012-1-31,61,45,32,34,26,21,64,48,25,30.35,30.24,8,0,0,0.00
2012-2-1,50,46,41,48,38,25,100,78,45,30.26,30.11,0,0,0,0.00
2012-2-2,59,53,46,48,38,30,100,57,37,30.30,30.09,10,2,0,0.00
2012-2-3,57,46,36,36,31,28,86,57,37,30.33,30.30,9,2,0,0.00
2012-2-4,48,44,39,48,41,30,100,91,60,30.28,30.07,0,0,0,0.00
2012-2-5,57,49,43,54,45,39,100,88,66,30.12,30.01,7,-49,0,0.00
2012-2-6,54,44,39,45,40,37,100,88,61,30.16,30.07,7,-42,0,0.00
2012-2-7,55,41,30,41,33,27,100,78,32,30.15,30.08,6,1,0,0.00
2012-2-8,46,39,36,37,32,28,86,75,65,30.15,30.08,13,2,17,0.00
2012-2-9,48,38,28,34,29,25,86,70,46,30.19,30.09,9,2,0,0.00
2012-2-10,48,37,28,36,30,27,100,75,49,30.11,29.88,6,0,0,0.00
2012-2-11,36,23,16,30,13,5,80,65,53,30.11,29.83,9,3,0,0.00
2012-2-12,37,23,10,12,6,1,72,50,31,30.18,30.10,12,6,22,0.00
2012-2-13,46,35,19,21,14,10,79,45,24,30.17,30.02,6,-81,0,0.00
2012-2-14,39,35,30,39,33,18,100,94,44,30.07,29.96,0,0,0,0.00
2012-2-15,64,45,34,45,35,23,100,75,23,30.21,30.07,10,-49,25,0.00
2012-2-16,52,46,43,52,43,36,100,89,61,30.18,30.05,8,0,0,0.00
2012-2-17,61,47,36,45,37,30,100,74,33,30.13,30.05,8,-99,0,0.00
2012-2-18,61,48,37,45,39,36,93,73,47,30.08,29.92,0,0,0,0.00
2012-2-19,45,42,34,45,41,30,100,95,86,29.92,29.67,12,4,16,0.00
2012-2-20,55,39,30,30,28,23,100,69,28,30.20,29.93,10,-62,17,0.00
2012-2-21,52,42,34,37,32,23,75,67,53,30.17,29.99,9,2,0,0.00
2012-2-22,57,51,41,48,40,30,87,67,54,30.00,29.66,23,8,32,0.00
2012-2-23,68,61,52,54,50,48,87,68,49,29.74,29.64,21,10,41,0.00
2012-2-24,64,57,37,55,45,19,76,63,36,29.96,29.67,22,14,32,0.00
2012-2-25,43,35,28,19,15,7,63,44,27,30.22,29.96,20,10,36,0.00
2012-2-26,54,38,25,21,18,12,68,45,23,30.34,30.22,10,1,17,0.00
2012-2-27,63,47,36,45,34,21,70,60,50,30.37,30.28,0,-50,0,0.00
2012-2-28,66,60,54,46,44,39,76,56,37,30.30,30.24,10,6,21,0.00
2012-2-29,64,58,52,57,54,46,100,86,72,30.24,29.92,23,7,31,0.00
2012-3-1,68,60,52,55,44,21,93,61,17,29.97,29.89,13,-68,18,0.00
2012-3-2,64,55,46,57,46,28,87,72,43,29.94,29.75,20,-50,36,0.00
2012-3-3,57,49,43,57,39,12,100,75,26,29.82,29.66,9,4,0,0.00
2012-3-4,41,36,34,23,19,16,64,50,41,29.97,29.74,8,3,0,0.00
2012-3-5,43,38,34,30,22,16,65,51,38,30.36,29.86,18,9,46,0.00
2012-3-6,63,40,25,27,18,7,73,47,12,30.49,30.36,17,3,25,0.00
2012-3-7,55,48,39,46,36,21,81,63,41,30.50,30.37,8,4,0,0.00
2012-3-8,63,56,52,54,49,46,100,78,63,30.37,30.14,16,5,23,0.00
2012-3-9,54,49,43,52,38,19,100,70,25,30.29,30.11,9,4,0,0.00
2012-3-10,64,48,32,30,25,18,69,44,24,30.41,30.28,14,2,20,0.00
2012-3-11,64,48,34,39,27,-100,65,49,27,30.45,30.34,14,3,22,0.00
2012-3-12,55,52,48,52,48,41,100,88,66,30.37,30.26,7,1,0,0.00
2012-3-13,72,59,52,57,51,45,100,79,40,30.27,30.18,7,1,0,0.00
2012-3-14,75,60,46,54,46,37,93,66,25,30.31,30.21,0,0,0,0.00
2012-3-15,75,60,48,55,51,46,93,72,46,30.34,30.22,8,1,0,0.00
2012-3-16,72,58,50,61,54,50,100,87,56,30.34,30.18,8,1,0,0.00
2012-3-17,70,61,52,59,53,48,87,76,60,30.30,30.21,0,0,0,0.00
2012-3-18,72,61,54,61,57,52,100,85,60,30.33,30.21,6,1,0,0.00
2012-3-19,79,62,52,63,55,50,100,82,36,30.26,30.16,5,0,0,0.00
2012-3-20,79,64,55,61,52,-100,93,70,39,30.25,30.17,14,2,21,0.00
2012-3-21,72,64,57,57,55,54,93,74,53,30.29,30.21,10,2,17,0.00
2012-3-22,70,63,57,61,57,-100,93,82,72,30.28,30.19,8,-54,0,0.00
2012-3-23,64,60,55,63,59,55,100,96,82,30.21,30.00,10,2,17,0.00
2012-3-24,63,55,46,57,50,45,100,87,51,30.00,29.86,8,2,0,0.00
2012-3-25,57,52,46,50,47,46,100,84,71,29.96,29.84,10,6,0,0.00
2012-3-26,72,62,54,48,45,36,76,58,26,30.14,29.96,9,4,0,0.00
2012-3-27,73,60,46,48,45,39,93,61,30,30.25,30.14,13,2,18,0.00
2012-3-28,72,60,46,54,48,41,81,64,49,30.24,30.05,8,-43,0,0.00
2012-3-29,75,66,59,55,51,48,76,59,41,30.07,29.99,6,2,0,0.00
2012-3-30,70,58,52,57,53,48,100,85,56,30.06,29.96,7,1,0,0.00
2012-3-31,72,62,55,61,53,46,100,77,51,29.96,29.87,8,2,0,0.00
2012-4-1,73,64,52,57,53,50,100,71,43,29.95,29.87,8,1,0,0.00
2012-4-2,81,72,64,63,57,54,88,61,41,29.99,29.85,8,-30,0,0.00
2012-4-3,77,63,55,63,59,55,100,86,57,30.04,29.99,8,0,0,0.00
2012-4-4,73,60,54,68,56,54,100,88,60,30.03,29.81,5,0,0,0.00
2012-4-5,72,62,54,63,56,52,100,84,56,29.83,29.73,7,1,0,0.00
2012-4-6,66,55,50,54,48,36,100,81,47,30.10,29.79,5,0,0,0.00
2012-4-7,72,53,37,43,37,34,93,58,26,30.25,30.10,7,0,0,0.00
2012-4-8,72,54,45,43,40,36,81,63,33,30.19,30.09,5,1,0,0.00
2012-4-9,68,57,45,37,29,19,57,37,16,30.12,30.01,13,6,24,0.00
2012-4-10,63,56,50,37,31,25,43,37,33,30.04,29.94,16,6,30,0.00
2012-4-11,54,46,37,27,21,16,55,38,25,30.12,29.97,13,4,22,0.00
2012-4-12,64,44,30,30,23,19,80,47,20,30.19,30.08,6,0,0,0.00
2012-4-13,68,52,36,36,31,27,80,48,20,30.26,30.13,8,2,0,0.00
2012-4-14,72,57,43,46,39,32,70,52,37,30.30,30.18,10,2,18,0.00
2012-4-15,75,64,48,57,51,43,81,63,49,30.25,30.18,14,5,21,0.00
2012-4-16,72,67,63,59,57,55,82,70,56,30.23,30.17,13,6,21,0.00
2012-4-17,73,62,52,61,56,52,100,84,53,30.24,30.14,9,1,0,0.00
2012-4-18,55,54,52,55,54,52,100,100,100,30.16,30.06,6,1,0,0.00
2012-4-19,68,58,52,59,55,52,100,89,64,30.08,30.00,10,1,18,0.00
2012-4-20,66,58,54,55,53,52,100,83,59,30.04,29.91,10,2,17,0.00
2012-4-21,66,56,54,61,56,54,100,97,82,29.93,29.80,0,0,0,0.00
2012-4-22,61,51,43,54,46,27,100,85,61,29.80,29.64,15,6,22,0.00
2012-4-23,48,41,36,32,25,19,69,54,33,29.81,29.66,16,7,23,0.00
2012-4-24,54,46,39,43,31,21,93,57,40,29.92,29.77,13,5,20,0.00
2012-4-25,73,57,43,59,51,43,100,84,46,29.96,29.89,12,-84,22,0.00
2012-4-26,63,59,55,59,57,55,100,94,77,29.99,29.91,12,-31,0,0.00
2012-4-27,75,65,57,66,58,55,100,81,50,30.12,29.98,8,2,0,0.00
2012-4-28,75,65,54,64,58,54,100,81,53,30.19,30.09,10,3,18,0.00
2012-4-29,72,61,55,66,60,55,100,97,73,30.22,30.18,0,0,0,0.00
2012-4-30,81,70,57,66,60,54,100,74,41,30.25,30.14,12,4,22,0.00
2012-5-1,79,71,63,66,63,61,93,76,57,30.21,30.14,9,1,0,0.00
2012-5-2,84,72,61,66,63,55,100,76,39,30.23,30.14,8,2,0,0.00
2012-5-3,81,69,57,66,61,57,100,77,44,30.24,30.14,10,2,18,0.00
2012-5-4,77,67,61,66,63,61,100,87,65,30.20,30.07,5,0,0,0.00
2012-5-5,77,67,57,66,60,57,100,81,50,30.09,29.99,9,2,0,0.00
2012-5-6,75,63,57,63,60,57,100,91,60,30.09,30.03,13,2,18,0.00
2012-5-7,73,64,57,64,62,57,100,94,73,30.10,29.99,9,1,0,0.00
2012-5-8,72,64,61,68,63,61,100,98,88,30.01,29.95,0,0,0,0.00
2012-5-9,61,57,54,61,56,48,100,96,81,29.96,29.84,8,2,0,0.00
2012-5-10,64,57,50,48,44,41,81,62,42,30.04,29.88,12,5,18,0.00
2012-5-11,70,57,41,52,46,39,100,70,46,30.24,30.04,7,1,0,0.00
2012-5-12,63,55,48,57,51,46,100,88,81,30.33,30.24,5,0,0,0.00
2012-5-13,59,56,55,57,55,54,100,96,87,30.26,30.09,6,0,0,0.00
2012-5-14,72,62,55,66,60,55,100,95,73,30.09,29.98,5,0,0,0.00
2012-5-15,72,61,57,64,60,57,100,95,73,30.06,30.02,6,0,0,0.00
2012-5-16,75,61,55,64,57,55,100,91,53,30.07,29.99,5,0,0,0.00
2012-5-17,77,63,54,61,57,54,100,83,50,30.11,30.02,5,1,0,0.00
2012-5-18,72,61,55,66,59,55,100,95,64,30.16,30.10,6,1,0,0.00
2012-5-19,79,63,55,64,60,55,100,89,61,30.19,30.11,6,-81,0,0.00
2012-5-20,75,62,55,63,58,55,100,88,57,30.21,30.12,6,1,0,0.00
2012-5-21,75,63,52,64,59,52,100,89,64,30.14,30.01,9,-55,0,0.00
2012-5-22,68,60,57,64,60,57,100,98,82,30.03,29.92,0,0,0,0.00
2012-5-23,72,61,57,64,60,57,100,97,78,30.01,29.92,6,0,0,0.00
2012-5-24,77,66,55,68,60,55,100,82,47,30.11,30.00,10,1,15,0.00
2012-5-25,82,67,57,70,64,57,100,90,65,30.22,30.11,0,0,0,0.00
2012-5-26,84,74,63,72,69,63,100,85,65,30.26,30.17,0,0,0,0.00
2012-5-27,81,72,63,72,66,63,100,83,61,30.22,30.13,10,-54,15,0.00
2012-5-28,81,72,61,70,65,61,100,80,54,30.16,30.06,12,2,21,0.00
2012-5-29,79,68,63,72,67,63,100,96,73,30.10,29.95,7,0,0,0.00
2012-5-30,82,70,61,66,61,55,100,77,47,30.00,29.93,0,0,0,0.00
2012-5-31,77,65,54,68,59,52,100,82,57,30.01,29.91,0,0,0,0.00
2012-6-1,72,63,55,64,61,52,100,91,73,29.94,29.86,13,3,17,0.00
2012-6-2,68,58,46,54,49,45,100,73,52,30.01,29.91,10,3,0,0.00
2012-6-3,73,61,46,57,52,46,100,75,49,30.06,29.97,7,1,0,0.00
2012-6-4,73,67,57,64,60,54,100,80,68,29.97,29.87,9,1,0,0.00
2012-6-5,73,64,57,64,59,55,100,87,64,29.94,29.84,6,0,0,0.00
2012-6-6,73,62,55,64,57,54,100,88,53,30.06,29.92,7,1,0,0.00
2012-6-7,75,62,54,64,58,54,100,87,56,30.12,30.06,5,0,0,0.00
2012-6-8,79,65,54,64,60,54,100,85,54,30.15,30.08,8,0,0,0.00
2012-6-9,75,65,57,66,62,57,100,90,73,30.18,30.10,0,0,0,0.00
2012-6-10,66,63,59,66,62,59,100,98,88,30.19,30.13,8,2,0,0.00
2012-6-11,73,67,63,70,66,63,100,98,88,30.16,30.08,8,1,0,0.00
2012-6-12,81,71,63,75,69,63,100,94,83,30.09,30.01,8,2,0,0.00
2012-6-13,82,67,57,70,65,57,100,93,65,30.10,30.05,7,-47,0,0.00
2012-6-14,81,70,61,70,66,61,100,89,69,30.21,30.11,10,2,0,0.00
2012-6-15,75,66,59,70,64,59,100,93,78,30.28,30.18,6,1,0,0.00
2012-6-16,79,67,61,68,64,61,100,89,65,30.31,30.20,9,0,0,0.00
2012-6-17,75,67,61,68,64,61,100,92,73,30.23,30.10,0,0,0,0.00
2012-6-18,79,68,63,72,66,63,100,93,69,30.20,30.11,6,0,0,0.00
2012-6-19,81,70,57,72,66,57,100,87,65,30.26,30.20,6,-19,0,0.00
2012-6-20,63,62,61,63,62,61,100,100,100,30.27,30.27,0,0,0,0.00
2012-6-27,81,74,68,61,58,57,77,58,44,30.13,30.08,0,0,0,0.00
2012-6-28,88,72,55,70,62,55,100,76,48,30.17,30.11,7,-51,0,0.00
2012-6-29,93,78,64,75,68,63,93,75,46,30.12,30.02,5,-97,0,0.00
2012-6-30,95,83,66,75,71,64,100,70,38,30.10,30.03,6,-51,0,0.00
2012-7-1,93,80,68,77,70,64,100,74,38,30.16,30.07,6,1,0,0.00
2012-7-2,84,73,64,72,69,64,100,86,65,30.24,30.13,9,-70,0,0.00
2012-7-3,84,74,66,75,70,66,100,86,62,30.19,30.10,7,1,0,0.00
2012-7-4,86,72,63,73,67,63,100,86,58,30.17,30.10,0,0,0,0.00
2012-7-5,88,73,64,77,69,64,100,88,55,30.17,30.08,7,1,0,0.00
2012-7-6,90,70,61,75,67,61,100,91,55,30.14,30.08,5,0,0,0.00
2012-7-7,88,75,64,75,70,64,100,86,62,30.18,30.11,9,1,0,0.00
2012-7-8,86,73,66,77,71,66,100,95,70,30.18,30.06,0,0,0,0.00
2012-7-9,81,71,66,79,70,66,100,98,83,30.12,30.04,6,1,0,0.00
2012-7-10,82,69,66,75,69,66,100,98,78,30.14,30.07,0,0,0,0.00
2012-7-11,73,67,64,73,67,64,100,100,100,30.19,30.11,0,0,0,0.00
2012-7-12,70,66,64,70,66,64,100,100,100,30.22,30.16,5,-50,0,0.00
2012-7-13,75,68,64,75,68,64,100,100,100,30.26,30.17,10,0,15,0.00
2012-7-14,79,68,66,75,68,66,100,99,88,30.29,30.23,5,0,0,0.00
2012-7-15,81,70,66,75,69,66,100,99,83,30.31,30.23,6,0,0,0.00
2012-7-16,84,70,64,79,69,64,100,96,70,30.24,30.12,8,0,0,0.00
2012-7-17,81,71,64,79,69,64,100,96,78,30.16,30.07,0,0,0,0.00
2012-7-18,82,69,64,79,69,64,100,98,83,30.15,30.07,0,0,0,0.00
2012-7-19,84,71,66,79,70,66,100,97,74,30.19,30.10,5,0,0,0.00
2012-7-20,81,70,66,77,69,66,100,98,88,30.11,30.05,0,0,0,0.00
2012-7-21,81,68,66,79,68,66,100,99,94,30.20,30.09,8,1,0,0.00
2012-7-22,86,70,64,79,69,64,100,95,74,30.30,30.20,0,0,0,0.00
2012-7-23,82,72,64,81,71,64,100,96,74,30.33,30.21,6,0,0,0.00
2012-7-24,84,72,66,79,72,66,100,98,83,30.23,30.10,0,0,0,0.00
2012-7-25,88,74,66,81,72,66,100,95,70,30.14,30.06,0,0,0,0.00
2012-7-26,86,77,68,79,72,68,100,86,62,30.10,30.00,7,-51,0,0.00
2012-7-27,84,78,73,75,73,72,100,84,69,30.10,30.04,5,0,0,0.00
2012-7-28,84,73,64,79,70,64,100,89,62,30.16,30.09,12,1,18,0.00
2012-7-29,84,72,61,72,66,61,100,83,54,30.15,30.07,5,0,0,0.00
2012-7-30,81,69,64,73,67,64,100,95,69,30.13,30.06,0,0,0,0.00
2012-7-31,75,69,64,75,69,64,100,100,100,30.11,30.01,7,0,0,0.00
2012-8-1,84,71,61,77,69,61,100,93,65,30.08,30.01,5,0,0,0.00
2012-8-2,86,74,63,75,71,63,100,91,70,30.07,30.00,6,0,0,0.00
2012-8-3,79,70,64,77,70,64,100,99,83,30.15,30.05,16,1,27,0.00
2012-8-4,77,70,64,75,70,64,100,99,88,30.28,30.15,7,1,0,0.00
2012-8-5,81,71,66,77,70,66,100,98,88,30.30,30.23,0,0,0,0.00
2012-8-6,81,71,66,75,70,66,100,97,83,30.25,30.15,5,0,0,0.00
2012-8-7,77,70,66,75,70,66,100,100,94,30.15,30.08,5,0,0,0.00
2012-8-8,84,73,68,81,72,68,100,98,88,30.14,30.09,7,1,0,0.00
2012-8-9,79,66,63,79,66,63,100,100,100,30.13,29.97,80,5,0,0.00
2012-8-10,77,68,63,75,68,63,100,99,94,29.99,29.93,0,0,0,0.00
2012-8-11,77,70,64,73,68,63,100,93,78,30.07,29.97,8,1,0,0.00
2012-8-12,79,67,57,68,62,57,100,87,57,30.14,30.07,0,0,0,0.00
2012-8-13,79,66,59,66,62,59,100,90,57,30.14,30.07,0,0,0,0.00
2012-8-14,81,68,57,73,65,57,100,94,74,30.10,30.00,0,-47,0,0.00
2012-8-15,77,67,61,72,64,61,100,92,69,30.12,30.03,10,0,20,0.00
2012-8-16,81,70,57,72,63,57,100,83,50,30.15,30.05,0,0,0,0.00
2012-8-17,75,68,61,73,67,61,100,97,88,30.12,29.99,0,-59,0,0.00
2012-8-18,77,68,63,73,67,63,100,96,83,30.04,29.95,8,0,0,0.00
2012-8-19,72,66,61,72,66,61,100,99,93,30.01,29.95,5,0,0,0.00
2012-8-20,75,66,59,66,62,59,100,89,64,30.09,29.97,6,0,0,0.00
2012-8-21,77,63,54,66,60,54,100,90,57,30.16,30.08,6,-38,0,0.00
2012-8-22,79,67,57,68,62,57,100,85,57,30.20,30.14,6,1,0,0.00
2012-8-23,79,66,61,70,65,61,100,96,73,30.24,30.18,0,0,0,0.00
2012-8-24,77,64,59,72,64,59,100,98,78,30.25,30.16,5,0,0,0.00
2012-8-25,81,64,57,73,64,57,100,98,69,30.25,30.17,0,0,0,0.00
2012-8-26,81,66,61,75,65,61,100,96,73,30.27,30.19,0,0,0,0.00
2012-8-27,84,67,59,75,65,59,100,95,54,30.25,30.12,8,1,0,0.00
2012-8-28,77,67,61,75,66,61,100,99,88,30.16,30.08,7,0,0,0.00
2012-8-29,81,69,66,79,69,66,100,100,94,30.12,30.07,5,0,0,0.00
2012-8-30,75,70,64,75,70,64,100,100,100,30.27,30.11,7,-129,0,0.00
2012-8-31,84,70,64,81,69,64,100,97,78,30.34,30.25,0,-13,0,0.00
2012-9-1,82,71,66,77,70,66,100,98,78,30.29,30.17,0,0,0,0.00
2012-9-2,81,71,66,77,70,66,100,97,83,30.21,30.06,10,2,15,0.00
2012-9-3,77,70,66,77,70,66,100,100,100,30.10,30.02,5,0,0,0.00
2012-9-4,75,70,66,75,70,66,100,100,100,30.06,30.01,0,0,0,0.00
2012-9-5,81,71,66,77,71,66,100,98,88,30.06,29.98,8,-60,0,0.00
2012-9-6,82,71,66,75,70,66,100,97,78,30.09,30.01,7,0,0,0.00
2012-9-7,84,70,61,77,67,61,100,93,62,30.12,29.99,6,0,0,0.00
2012-9-8,79,68,63,73,67,59,100,98,83,29.99,29.91,8,-108,0,0.00
2012-9-9,73,59,48,59,54,48,100,84,53,30.11,29.96,8,1,0,0.00
2012-9-10,72,60,48,61,54,48,100,81,49,30.22,30.12,0,0,0,0.00
2012-9-11,73,63,55,64,58,55,100,88,64,30.33,30.22,6,1,0,0.00
2012-9-12,75,66,57,64,60,57,100,83,56,30.38,30.30,5,0,0,0.00
2012-9-13,72,62,54,63,57,54,100,86,56,30.38,30.29,5,0,0,0.00
2012-9-14,73,62,54,64,59,54,100,90,60,30.33,30.25,5,0,0,0.00
2012-9-15,75,62,54,68,60,54,100,93,64,30.29,30.18,6,0,0,0.00
2012-9-16,73,65,59,68,63,59,100,95,78,30.20,30.13,0,0,0,0.00
2012-9-17,70,64,61,70,64,61,100,98,88,30.16,29.90,6,0,0,0.00
2012-9-18,68,64,57,68,64,57,100,100,100,29.99,29.80,14,4,24,0.00
2012-9-19,72,60,48,61,56,48,100,89,56,30.15,29.99,6,1,0,0.00
2012-9-20,72,62,54,63,58,54,100,88,56,30.20,30.09,7,0,0,0.00
2012-9-21,73,61,52,66,58,52,100,92,68,30.16,30.06,7,1,0,0.00
2012-9-22,73,64,57,66,61,52,100,90,73,30.13,30.04,8,1,0,0.00
2012-9-23,70,57,46,52,44,34,100,67,26,30.20,30.12,6,2,0,0.00
2012-9-24,70,52,37,48,44,37,100,78,40,30.24,30.16,0,0,0,0.00
2012-9-25,73,56,45,61,52,45,100,88,59,30.26,30.21,7,1,0,0.00
2012-9-26,77,64,52,66,60,52,100,87,61,30.27,30.20,6,0,0,0.00
2012-9-27,75,62,54,64,59,54,100,92,64,30.28,30.20,0,0,0,0.00
2012-9-28,75,63,54,68,61,54,100,95,78,30.23,30.10,0,0,0,0.00
2012-9-29,72,64,59,68,62,59,100,95,73,30.12,29.96,8,1,0,0.00
2012-9-30,70,61,55,64,60,55,100,95,73,29.99,29.90,5,-49,0,0.00
2012-10-1,64,60,57,64,60,57,100,100,100,29.92,29.79,8,2,0,0.00
2012-10-2,72,65,61,68,63,61,100,92,68,30.05,29.80,0,0,0,0.00
2012-10-3,73,63,57,64,59,55,100,88,53,30.24,30.05,0,0,0,0.00
2012-10-4,73,62,54,63,56,54,100,84,53,30.31,30.25,0,0,0,0.00
2012-10-5,75,59,46,61,54,46,100,87,53,30.29,30.10,0,0,0,0.00
2012-10-6,72,59,52,64,58,52,100,96,78,30.12,30.00,0,0,0,0.00
2012-10-7,54,51,46,54,51,46,100,100,93,30.11,30.01,0,0,0,0.00
2012-10-8,50,47,46,50,47,45,100,100,93,30.15,30.08,0,0,0,0.00
2012-10-9,63,51,46,54,49,46,100,93,72,30.14,30.06,0,0,0,0.00
2012-10-10,57,50,45,54,48,45,100,93,81,30.17,30.10,0,0,0,0.00
2012-10-11,70,52,41,55,45,41,100,83,45,30.28,30.19,0,-51,0,0.00
2012-10-12,70,56,46,59,52,45,100,89,68,30.32,30.23,0,0,0,0.00
2012-10-13,66,58,52,55,52,46,100,79,63,30.39,30.29,0,0,0,0.00
2012-10-14,64,58,48,61,55,46,100,92,82,30.31,30.07,0,0,0,0.00
2012-10-15,64,60,52,63,55,45,100,87,67,30.07,29.92,9,2,0,0.00
2012-10-16,66,53,43,48,44,39,100,76,37,30.01,29.92,8,1,0,0.00
2012-10-17,68,52,39,52,45,37,100,79,32,30.01,29.91,10,2,15,0.00
2012-10-18,66,59,52,61,54,46,100,83,72,29.91,29.83,16,6,27,0.00
2012-10-19,63,55,46,55,38,30,93,55,31,29.87,29.77,17,-31,28,0.00
2012-10-20,64,54,46,52,44,37,87,68,54,30.01,29.83,8,-51,0,0.00
2012-10-21,70,54,39,52,45,39,100,77,37,30.20,30.01,10,1,16,0.00
2012-10-22,75,60,43,54,48,43,100,68,35,30.26,30.17,5,0,0,0.00
2012-10-23,75,60,48,55,50,46,100,73,40,30.24,30.16,0,0,0,0.00
2012-10-24,79,61,48,55,51,46,100,74,31,30.25,30.13,10,1,0,0.00
2012-10-25,72,59,46,57,52,46,100,78,53,30.19,30.12,13,2,22,0.00
2012-10-26,73,63,54,61,56,54,100,81,49,30.15,30.02,5,-39,0,0.00
2012-10-27,70,58,50,61,54,48,100,87,72,30.02,29.84,8,1,0,0.00
2012-10-28,50,45,39,50,44,36,100,95,81,29.89,29.80,16,5,23,0.00
2012-10-29,43,37,34,36,35,30,100,91,75,29.84,29.67,15,8,21,0.00
2012-10-30,37,34,30,34,31,30,100,89,74,29.73,29.56,9,-53,0,0.00
2012-10-31,52,41,36,36,28,18,86,65,34,29.84,29.72,9,4,0,0.00
2012-11-1,54,43,34,30,22,18,69,44,25,29.94,29.82,13,3,17,0.00
2012-11-2,63,51,39,45,34,19,62,52,38,30.02,29.90,16,3,29,0.00
2012-11-3,68,54,37,54,41,30,80,61,36,30.11,30.02,7,1,0,0.00
2012-11-4,61,59,57,54,51,48,87,74,71,30.03,29.97,12,2,21,0.00
2012-11-5,57,47,36,37,33,25,100,63,30,30.06,29.97,9,-57,0,0.00
2012-11-6,45,40,36,41,38,36,100,94,70,30.02,29.90,6,1,0,0.00
2012-11-7,48,40,37,46,39,37,100,97,86,30.00,29.84,7,1,0,0.00
2012-11-8,57,45,34,39,34,30,100,68,35,30.16,30.00,9,3,0,0.00
2012-11-9,66,46,30,37,31,28,92,61,27,30.27,30.16,0,-50,0,0.00
2012-11-10,72,53,37,39,34,30,80,51,21,30.36,30.26,12,1,21,0.00
2012-11-11,61,54,39,52,43,34,82,67,47,30.41,30.34,17,6,23,0.00
2012-11-12,63,56,45,55,53,45,100,89,77,30.32,30.19,15,7,22,0.00
2012-11-13,54,43,36,45,33,23,100,74,37,30.31,30.21,10,2,17,0.00
2012-11-14,54,40,28,36,32,25,92,72,50,30.33,30.23,0,0,0,0.00
2012-11-15,61,46,39,46,39,30,87,75,55,30.23,30.15,0,-63,0,0.00
2012-11-16,61,44,34,43,34,27,100,74,26,30.30,30.20,0,0,0,0.00
2012-11-17,63,45,34,36,28,18,86,58,25,30.38,30.30,0,0,0,0.00
2012-11-18,59,44,34,50,35,18,93,69,35,30.38,30.29,7,1,0,0.00
2012-11-19,63,47,36,52,44,36,100,89,67,30.31,30.19,7,0,0,0.00
2012-11-20,61,49,41,48,42,39,100,80,48,30.18,30.06,7,2,0,0.00
2012-11-21,61,50,39,48,42,37,93,75,58,30.18,30.10,0,0,0,0.00
2012-11-22,66,54,37,48,40,36,100,65,37,30.24,30.15,0,0,0,0.00
2012-11-23,57,46,37,50,40,28,100,81,65,30.17,30.01,8,2,0,0.00
2012-11-24,45,38,30,30,22,16,92,55,33,30.06,29.99,10,5,18,0.00
2012-11-25,55,34,23,23,18,12,73,56,23,30.10,30.01,0,0,0,0.00
2012-11-26,63,47,32,37,25,16,55,43,25,30.19,30.08,6,-59,0,0.00
2012-11-27,48,45,43,46,44,36,100,97,61,30.17,30.10,0,0,0,0.00
2012-11-28,54,41,34,39,33,27,100,76,34,30.31,30.17,6,1,0,0.00
2012-11-29,57,38,28,36,31,25,92,75,41,30.37,30.27,5,0,0,0.00
2012-11-30,55,43,32,43,36,30,93,77,54,30.34,30.24,8,1,0,0.00
2012-12-1,61,46,36,48,42,36,100,86,63,30.36,30.29,9,1,0,0.00
2012-12-2,63,53,46,52,48,45,100,83,59,30.36,30.26,10,1,15,0.00
2012-12-3,66,53,43,52,47,43,100,84,52,30.33,30.23,12,1,18,0.00
2012-12-4,63,55,45,52,48,45,100,77,59,30.32,30.21,9,1,0,0.00
2012-12-5,59,54,48,57,50,39,100,85,61,30.21,30.14,0,0,0,0.00
2012-12-6,50,46,43,46,37,-100,93,75,57,30.21,30.13,5,1,0,0.00
2012-12-7,61,51,45,55,49,43,100,92,76,30.13,30.00,5,0,0,0.00
2012-12-8,63,54,48,55,52,48,100,92,77,30.07,30.01,6,1,0,0.00
2012-12-9,63,57,52,57,54,52,100,91,72,30.11,30.00,7,2,0,0.00
2012-12-10,57,55,52,57,54,48,100,95,87,30.00,29.75,9,3,0,0.00
2012-12-11,48,38,34,48,37,34,100,97,81,30.08,29.81,9,-59,0,0.00
2012-12-12,43,36,32,39,35,32,100,96,86,30.21,30.09,0,0,0,0.00
2012-12-13,54,38,28,43,36,28,100,90,62,30.29,30.18,0,0,0,0.00
2012-12-14,59,41,30,45,35,30,100,81,47,30.31,30.19,5,0,0,0.00
2012-12-15,57,46,37,46,37,30,86,70,50,30.19,30.05,6,0,0,0.00
2012-12-16,50,48,45,50,47,43,100,97,81,30.05,29.91,5,0,0,0.00
2012-12-17,52,48,45,52,48,45,100,98,87,29.91,29.71,9,2,0,0.00
2012-12-18,52,44,36,46,34,23,100,71,40,29.98,29.72,12,2,17,0.00
2012-12-19,59,46,34,46,37,28,86,72,51,30.10,29.98,0,0,0,0.00
2012-12-20,50,44,34,48,40,25,100,85,66,30.08,29.64,17,8,30,0.00
2012-12-21,32,29,27,27,22,16,86,73,59,29.98,29.70,22,13,36,0.00
2012-12-22,48,35,25,18,13,9,63,43,26,30.13,29.98,9,3,0,0.00
2012-12-23,48,35,27,39,22,10,93,62,42,30.12,30.02,6,0,0,0.00
2012-12-24,43,40,36,43,40,36,100,100,93,30.02,29.85,0,0,0,0.00
2012-12-25,43,42,39,43,42,39,100,100,100,30.01,29.94,0,0,0,0.00
2012-12-26,46,35,28,46,33,27,100,94,86,29.81,29.50,15,-67,28,0.00
2012-12-27,41,31,27,34,29,27,100,90,75,30.01,29.81,12,3,18,0.00
2012-12-28,46,37,28,37,33,28,100,88,70,30.06,29.88,0,0,0,0.00
2012-12-29,39,34,27,37,33,21,100,95,79,30.03,29.75,13,4,25,0.00
2012-12-30,45,33,25,27,23,19,85,68,48,30.29,30.06,12,4,23,0.00
2012-12-31,46,38,27,30,26,21,92,65,39,30.29,30.12,0,0,0,0.00
2013-1-1,45,40,34,45,37,27,100,89,60,30.08,29.95,0,0,0,0.00